Baton Rouge, LA

3:05 PM CDT on June 27, 2017 (GMT -0500)
Baton Rouge Metro-Ryan

Weather History for KBTR - September, 2011

Change the Weather History Date:

Wednesday, September 21, 2011

  Actual Average Record
Temperature  
Mean Temperature 77 °F 77 °F  
Max Temperature 89 °F 88 °F 100 °F (1921)
Min Temperature 64 °F 67 °F 44 °F (1897)
Degree Days  
Heating Degree Days 0 0  
Month to date heating degree days 0 0  
Since 1 July heating degree days 0 0  
Cooling Degree Days 12 12  
Month to date cooling degree days 223 312  
Year to date cooling degree days 2734 2473  
Growing Degree Days 26 (Base 50)    
Moisture  
Dew Point 68 °F    
Average Humidity 72    
Maximum Humidity 100    
Minimum Humidity 44    
Precipitation  
Precipitation 0.00 in 0.14 in 5.00 in (1909)
Month to date precipitation 9.48 3.26  
Year to date precipitation 38.30 44.97  
Snow  
Snow 0.00 in - - ()
Month to date snowfall 0.0  
Since 1 July snowfall 0.0  
Since 1 September snowfall 0.0  
Snow Depth 0.00 in    
Sea Level Pressure  
Sea Level Pressure 29.99 in    
Wind  
Wind Speed 2 mph (ENE)    
Max Wind Speed 9 mph    
Max Gust Speed 22 mph    
Visibility 10 miles    
Events      
T = Trace of Precipitation, MM = Missing Value Source: NWS Daily Summary

Daily Weather History Graph

Daily Weather History Graph

Search for Another Location

Airport or City:

Trip Planner

Search our weather history database for the weather conditions in past years. The results will help you decide how hot, cold, wet, or windy it might be!

Date:

Astronomy

Sep. 21, 2011 Rise Set
Actual Time 6:52 AM CDT 7:02 PM CDT
Civil Twilight 6:28 AM CDT 7:26 PM CDT
Nautical Twilight 6:00 AM CDT 7:54 PM CDT
Astronomical Twilight 5:31 AM CDT 8:23 PM CDT
Moon 12:35 AM CDT (9/21) 2:51 PM CDT (9/21)
Length of Visible Light 12h 58m
Length of Day
12h 10m
Last Quarter, 38% of the Moon is Illuminated
Sep 21
Last Quarter
Sep 27
New
Oct 3
First Quarter
Oct 11
Full
Oct 19
Last Quarter

Hourly Weather History & Observations

Time (CDT) Temp. Heat Index Dew Point Humidity Pressure Visibility Wind Dir Wind Speed Gust Speed Precip Events Conditions
12:53 AM 68.0 °F - 66.9 °F 96% 29.96 in 10.0 mi Calm Calm - N/A   Clear
1:53 AM 66.9 °F - 66.0 °F 97% 29.96 in 10.0 mi Calm Calm - N/A   Clear
2:53 AM 64.9 °F - 64.9 °F 100% 29.96 in 10.0 mi ENE 4.6 mph - N/A   Clear
3:53 AM 64.9 °F - 64.9 °F 100% 29.96 in 8.0 mi Calm Calm - N/A   Clear
4:53 AM 66.0 °F - 66.0 °F 100% 29.97 in 7.0 mi Calm Calm - N/A   Clear
5:53 AM 64.9 °F - 64.9 °F 100% 29.99 in 8.0 mi Calm Calm - N/A   Clear
6:53 AM 64.9 °F - 64.9 °F 100% 30.00 in 7.0 mi Calm Calm - N/A   Clear
7:53 AM 69.1 °F - 68.0 °F 96% 30.01 in 9.0 mi Calm Calm - N/A   Clear
8:53 AM 75.0 °F - 69.1 °F 82% 30.03 in 10.0 mi North 4.6 mph - N/A   Clear
9:53 AM 79.0 °F - 70.0 °F 74% 30.04 in 10.0 mi NE 4.6 mph - N/A   Clear
10:53 AM 82.9 °F 87.0 °F 70.0 °F 65% 30.04 in 10.0 mi ENE 4.6 mph - N/A   Partly Cloudy
11:53 AM 84.9 °F 88.2 °F 68.0 °F 57% 30.03 in 10.0 mi East 3.5 mph - N/A   Scattered Clouds
12:53 PM 87.1 °F 89.2 °F 66.0 °F 49% 30.01 in 10.0 mi North 5.8 mph - N/A   Scattered Clouds
1:53 PM 87.1 °F 89.2 °F 66.0 °F 49% 30.00 in 10.0 mi East 4.6 mph - N/A   Scattered Clouds
2:53 PM 89.1 °F 91.0 °F 64.9 °F 45% 29.98 in 10.0 mi Calm Calm - N/A   Scattered Clouds
3:53 PM 87.1 °F 89.2 °F 66.0 °F 49% 29.97 in 10.0 mi NE 6.9 mph - N/A   Mostly Cloudy
4:53 PM 87.1 °F 88.9 °F 64.9 °F 48% 29.97 in 10.0 mi Variable 3.5 mph - N/A   Partly Cloudy
5:53 PM 87.1 °F 88.9 °F 64.9 °F 48% 29.97 in 10.0 mi NE 4.6 mph - N/A   Partly Cloudy
6:53 PM 79.0 °F - 71.1 °F 77% 29.98 in 10.0 mi Calm Calm - N/A   Clear
7:53 PM 77.0 °F - 71.1 °F 82% 29.99 in 10.0 mi Calm Calm - N/A   Clear
8:53 PM 75.9 °F - 71.1 °F 85% 30.01 in 10.0 mi East 3.5 mph - N/A   Clear
9:53 PM 75.0 °F - 72.0 °F 90% 30.01 in 10.0 mi Calm Calm - N/A   Clear
10:53 PM 73.0 °F - 72.0 °F 96% 30.01 in 10.0 mi East 3.5 mph - N/A   Clear
11:53 PM 73.0 °F - 72.0 °F 96% 30.01 in 9.0 mi Calm Calm - N/A   Clear